Zurück zum Katalog

OPS 4682 DEB

AktivPO
NORAD 15340·DEBRIS·🇺🇸 United States

Gestartet Apr 3, 1965 von Vandenberg Space Force Base

Loading…

Nächste Überflüge (nächste 24 Stunden)

TLE

AktuellSource: Space-Track

Epoche: Sep 14, 2026, 13:58 UTC

1 15340U 65027R   26257.58222605 -.00000519  00000-0 -17653-2 0  9996
2 15340  90.2445   7.6923 0038195 149.0956 273.5742 12.99192138995138

Verfolge OPS 4682 DEB in Echtzeit mit AllMySat

Download on the App Store